This is the latest recevied weather packets stored in our database for station/object IK2CHZ-3. If no packets are shown the sender has not sent any weather packets the latest 1 day(s).
| Time | Temp. | Humidity | Pressure | Rain* | Wind** | Luminosity | Snow |
|---|---|---|---|---|---|---|---|
| 1777985466 | 15.56° C | 84% | 1013.1 hPa | 0 mm | 2.24 m/s, 84° | - | - |
| 1777984805 | 15.56° C | 84% | 1013 hPa | 0 mm | 1.34 m/s, 94° | - | - |
| 1777984147 | 16.11° C | 82% | 1013.1 hPa | 0 mm | 1.34 m/s, 109° | - | - |
| 1777983487 | 16.11° C | 82% | 1013 hPa | 0 mm | 0.89 m/s, 105° | - | - |
| 1777982827 | 16.11° C | 83% | 1013.1 hPa | 0 mm | 2.68 m/s, 90° | - | - |
| 1777982166 | 15.56° C | 85% | 1013.1 hPa | 0 mm | 0.89 m/s, 75° | - | - |
| 1777981507 | 15.56° C | 86% | 1013.2 hPa | 0 mm | 0.45 m/s, 72° | - | - |
| 1777980846 | 15.56° C | 85% | 1013.2 hPa | 0 mm | 1.34 m/s, 100° | - | - |
| 1777980185 | 15.56° C | 85% | 1013.2 hPa | 0 mm | 0.45 m/s, 103° | - | - |
| 1777979527 | 15.56° C | 85% | 1013.2 hPa | 0 mm | 0.45 m/s, 126° | - | - |
| 1777978866 | 15.56° C | 85% | 1013.3 hPa | 0 mm | 0.45 m/s, 117° | - | - |
| 1777978207 | 15.56° C | 85% | 1013.3 hPa | 0 mm | 0.45 m/s, 102° | - | - |
| 1777977546 | 15.56° C | 85% | 1013.3 hPa | 0 mm | 0.89 m/s, 111° | - | - |
| 1777976887 | 15.56° C | 86% | 1013.3 hPa | 0 mm | 0.45 m/s, 141° | - | - |
| 1777976226 | 15° C | 86% | 1013.4 hPa | 0 mm | 1.34 m/s, 146° | - | - |
| 1777975565 | 15° C | 86% | 1013.4 hPa | 0 mm | 1.34 m/s, 147° | - | - |
| 1777974906 | 15° C | 88% | 1013.4 hPa | 0 mm | 0.89 m/s, 89° | - | - |
| 1777974247 | 15° C | 89% | 1013.3 hPa | 0 mm | 0.89 m/s, 90° | - | - |
| 1777973586 | 14.44° C | 90% | 1013.2 hPa | 0.25 mm | 0 m/s | - | - |
| 1777972927 | 13.89° C | 91% | 1013.2 hPa | 1.02 mm | 0 m/s | - | - |
| 1777972266 | 13.89° C | 91% | 1013.3 hPa | 1.02 mm | 0 m/s | - | - |
| 1777971607 | 13.89° C | 91% | 1013.2 hPa | 1.27 mm | 0 m/s | - | - |
| 1777970524 | 13.89° C | 90% | 1013.1 hPa | 2.03 mm | 0 m/s | - | - |
| 1777969864 | 13.89° C | 90% | 1013.1 hPa | 2.54 mm | 0.45 m/s, 230° | - | - |
| 1777969204 | 13.89° C | 90% | 1012.9 hPa | 2.03 mm | 0 m/s | - | - |
* Rain latest hour (hover to see other rain measurements)
** Current wind speed in m/s (hover to see current wind gust speed)